• In Slovakia
  • List of Countries
  • For 7 days
  • Water Temperature
  • Satellite Maps
  • Weather Map
  • Weather Widgets
  • user-avatar
    Login

    Hourly Weather Kabul

    Today, 18 June, Monday

    Time Temperature Precipitation Wind Pressure Humidity
    00:00 +21°C° 0.1 mm 1 mps 606 mmHg 41%
    01:00 +21°C° 0.1 mm 1 mps 606 mmHg 43%
    02:00 +20°C° 0.1 mm 1 mps 606 mmHg 45%
    03:00 +20°C° 0 mm 1 mps 606 mmHg 46%
    04:00 +19°C° 0 mm 1 mps 605 mmHg 48%
    05:00 +17°C° 0 mm 0 mps 605 mmHg 51%
    06:00 +18°C° 0 mm 0 mps 606 mmHg 45%
    07:00 +21°C° 0 mm 1 mps 606 mmHg 39%
    08:00 +23°C° 0 mm 1 mps 607 mmHg 33%
    09:00 +24°C° 0 mm 1 mps 607 mmHg 30%
    10:00 +25°C° 0 mm 1 mps 608 mmHg 26%
    11:00 +27°C° 0 mm 2 mps 608 mmHg 21%
    12:00 +28°C° 0 mm 2 mps 608 mmHg 20%
    13:00 +28°C° 0 mm 2 mps 608 mmHg 18%
    14:00 +29°C° 0 mm 2 mps 608 mmHg 16%
    15:00 +29°C° 0 mm 2 mps 608 mmHg 17%
    16:00 +29°C° 0 mm 3 mps 608 mmHg 17%
    17:00 +29°C° 0 mm 3 mps 608 mmHg 15%
    18:00 +28°C° 0 mm 3 mps 608 mmHg 18%
    19:00 +27°C° 0 mm 3 mps 608 mmHg 20%
    20:00 +26°C° 0 mm 2 mps 608 mmHg 23%
    21:00 +25°C° 0 mm 2 mps 608 mmHg 26%
    22:00 +24°C° 0 mm 2 mps 607 mmHg 28%
    23:00 +23°C° 0 mm 2 mps 607 mmHg 31%

    Tomorrow, 19 June, Tuesday

    Time Temperature Precipitation Wind Pressure Humidity
    00:00 +22°C° 0 mm 1 mps 607 mmHg 33%
    01:00 +22°C° 0 mm 1 mps 607 mmHg 35%
    02:00 +21°C° 0 mm 1 mps 607 mmHg 37%
    03:00 +20°C° 0 mm 1 mps 606 mmHg 39%
    04:00 +20°C° 0 mm 1 mps 606 mmHg 40%
    05:00 +19°C° 0 mm 1 mps 606 mmHg 41%
    06:00 +21°C° 0 mm 1 mps 607 mmHg 36%
    07:00 +22°C° 0 mm 1 mps 608 mmHg 31%
    08:00 +24°C° 0 mm 1 mps 608 mmHg 27%
    09:00 +25°C° 0 mm 1 mps 609 mmHg 23%
    10:00 +26°C° 0 mm 1 mps 609 mmHg 20%
    11:00 +27°C° 0 mm 2 mps 609 mmHg 17%
    12:00 +28°C° 0 mm 2 mps 609 mmHg 16%
    13:00 +29°C° 0 mm 2 mps 610 mmHg 14%
    14:00 +30°C° 0 mm 3 mps 610 mmHg 13%
    15:00 +30°C° 0 mm 3 mps 610 mmHg 13%
    16:00 +31°C° 0 mm 3 mps 609 mmHg 13%
    17:00 +32°C° 0 mm 4 mps 609 mmHg 13%
    18:00 +29°C° 0 mm 4 mps 609 mmHg 15%
    19:00 +28°C° 0 mm 4 mps 609 mmHg 17%
    20:00 +26°C° 0 mm 4 mps 609 mmHg 20%
    21:00 +25°C° 0 mm 3 mps 609 mmHg 21%
    22:00 +25°C° 0 mm 3 mps 609 mmHg 23%
    23:00 +24°C° 0 mm 2 mps 609 mmHg 24%

    Day after tomorrow, 20 June, Wednesday

    Time Temperature Precipitation Wind Pressure Humidity
    00:00 +23°C° 0 mm 2 mps 609 mmHg 25%
    01:00 +21°C° 0 mm 2 mps 609 mmHg 25%
    02:00 +20°C° 0 mm 2 mps 608 mmHg 26%
    03:00 +20°C° 0 mm 2 mps 608 mmHg 26%
    04:00 +19°C° 0 mm 2 mps 608 mmHg 27%
    05:00 +19°C° 0 mm 2 mps 608 mmHg 27%
    06:00 +20°C° 0 mm 2 mps 609 mmHg 24%
    07:00 +22°C° 0 mm 3 mps 609 mmHg 21%
    08:00 +24°C° 0 mm 3 mps 610 mmHg 18%
    09:00 +26°C° 0 mm 3 mps 611 mmHg 16%
    10:00 +27°C° 0 mm 3 mps 611 mmHg 14%
    11:00 +28°C° 0 mm 4 mps 611 mmHg 13%
    12:00 +29°C° 0 mm 4 mps 611 mmHg 12%
    13:00 +30°C° 0 mm 4 mps 611 mmHg 11%
    14:00 +30°C° 0 mm 4 mps 611 mmHg 11%
    15:00 +30°C° 0 mm 5 mps 611 mmHg 11%
    16:00 +30°C° 0 mm 6 mps 611 mmHg 12%
    17:00 +30°C° 0 mm 6 mps 610 mmHg 12%
    18:00 +28°C° 0 mm 6 mps 610 mmHg 15%
    19:00 +27°C° 0 mm 5 mps 610 mmHg 18%
    20:00 +25°C° 0 mm 5 mps 610 mmHg 20%
    21:00 +23°C° 0 mm 4 mps 610 mmHg 22%
    22:00 +24°C° 0 mm 3 mps 610 mmHg 24%
    23:00 +22°C° 0 mm 3 mps 610 mmHg 26%

    21 June, Thursday

    Time Temperature Precipitation Wind Pressure Humidity
    00:00 +21°C° 0 mm 3 mps 610 mmHg 28%
    01:00 +20°C° 0 mm 2 mps 610 mmHg 30%
    02:00 +20°C° 0 mm 2 mps 609 mmHg 32%
    03:00 +19°C° 0 mm 2 mps 609 mmHg 33%
    04:00 +19°C° 0 mm 2 mps 609 mmHg 34%
    05:00 +18°C° 0 mm 2 mps 608 mmHg 35%
    06:00 +20°C° 0 mm 2 mps 609 mmHg 31%
    07:00 +21°C° 0 mm 2 mps 610 mmHg 28%
    08:00 +24°C° 0 mm 2 mps 610 mmHg 25%
    09:00 +25°C° 0 mm 2 mps 611 mmHg 22%
    10:00 +26°C° 0 mm 2 mps 611 mmHg 20%
    11:00 +28°C° 0 mm 2 mps 611 mmHg 17%
    12:00 +29°C° 0 mm 3 mps 611 mmHg 16%
    13:00 +30°C° 0 mm 3 mps 611 mmHg 15%
    14:00 +31°C° 0 mm 3 mps 610 mmHg 15%
    15:00 +32°C° 0 mm 4 mps 610 mmHg 15%
    16:00 +32°C° 0 mm 4 mps 610 mmHg 15%
    17:00 +32°C° 0 mm 4 mps 610 mmHg 16%
    18:00 +29°C° 0 mm 4 mps 609 mmHg 18%
    19:00 +28°C° 0 mm 4 mps 609 mmHg 20%
    20:00 +26°C° 0 mm 4 mps 609 mmHg 23%
    21:00 +26°C° 0 mm 3 mps 609 mmHg 24%
    22:00 +25°C° 0 mm 3 mps 609 mmHg 25%
    23:00 +24°C° 0 mm 3 mps 609 mmHg 27%

    22 June, Friday

    Time Temperature Precipitation Wind Pressure Humidity
    00:00 +24°C° 0.1 mm 3 mps 609 mmHg 28%
    01:00 +22°C° 0.1 mm 3 mps 609 mmHg 28%
    02:00 +22°C° 0.1 mm 3 mps 608 mmHg 29%
    03:00 +21°C° 0.1 mm 2 mps 608 mmHg 31%
    04:00 +21°C° 0.1 mm 2 mps 608 mmHg 33%
    05:00 +20°C° 0.1 mm 2 mps 608 mmHg 34%
    06:00 +21°C° 0 mm 2 mps 608 mmHg 32%
    07:00 +21°C° 0 mm 2 mps 609 mmHg 30%
    08:00 +23°C° 0 mm 2 mps 609 mmHg 28%
    09:00 +24°C° 0 mm 2 mps 610 mmHg 26%
    10:00 +26°C° 0 mm 3 mps 610 mmHg 25%
    11:00 +27°C° 0 mm 3 mps 610 mmHg 23%
    12:00 +27°C° 0.1 mm 3 mps 610 mmHg 23%
    13:00 +28°C° 0.1 mm 3 mps 610 mmHg 22%
    14:00 +29°C° 0.1 mm 3 mps 610 mmHg 21%
    15:00 +28°C° 0.2 mm 4 mps 609 mmHg 24%
    16:00 +28°C° 0.2 mm 4 mps 609 mmHg 26%
    17:00 +27°C° 0.2 mm 4 mps 609 mmHg 28%
    18:00 +26°C° 0 mm 4 mps 609 mmHg 31%
    19:00 +25°C° 0 mm 3 mps 609 mmHg 33%
    20:00 +24°C° 0 mm 3 mps 609 mmHg 35%
    21:00 +24°C° 0 mm 3 mps 609 mmHg 37%
    22:00 +24°C° 0 mm 2 mps 609 mmHg 38%
    23:00 +23°C° 0 mm 2 mps 609 mmHg 39%

    23 June, Saturday

    Time Temperature Precipitation Wind Pressure Humidity
    00:00 +23°C° 0 mm 2 mps 609 mmHg 40%
    01:00 +21°C° 0 mm 2 mps 609 mmHg 41%
    02:00 +21°C° 0 mm 1 mps 608 mmHg 42%
    03:00 +21°C° 0 mm 1 mps 608 mmHg 44%
    04:00 +20°C° 0 mm 1 mps 608 mmHg 45%
    05:00 +20°C° 0 mm 1 mps 607 mmHg 46%
    06:00 +21°C° 0 mm 1 mps 608 mmHg 42%
    07:00 +23°C° 0 mm 1 mps 609 mmHg 37%
    08:00 +24°C° 0 mm 1 mps 609 mmHg 32%
    09:00 +25°C° 0 mm 1 mps 610 mmHg 29%
    10:00 +27°C° 0 mm 1 mps 610 mmHg 26%
    11:00 +28°C° 0 mm 2 mps 610 mmHg 23%
    12:00 +29°C° 0 mm 2 mps 610 mmHg 21%
    13:00 +30°C° 0 mm 2 mps 610 mmHg 19%
    14:00 +31°C° 0 mm 3 mps 610 mmHg 16%
    15:00 +31°C° 0 mm 3 mps 610 mmHg 16%
    16:00 +33°C° 0 mm 3 mps 610 mmHg 16%
    17:00 +33°C° 0 mm 3 mps 609 mmHg 16%
    18:00 +30°C° 0 mm 3 mps 609 mmHg 19%
    19:00 +29°C° 0 mm 2 mps 609 mmHg 22%
    20:00 +28°C° 0 mm 2 mps 609 mmHg 24%
    21:00 +27°C° 0 mm 2 mps 608 mmHg 27%
    22:00 +26°C° 0 mm 2 mps 608 mmHg 29%
    23:00 +25°C° 0 mm 1 mps 608 mmHg 31%
    Show more